Home > Weather > Chongqing > Past weeks

Flag for China Weather for the Past 2 Weeks in Chongqing, Chongqing Municipality, China

Now
63 °F

Scattered clouds.


Feels Like: 63 °F
Forecast: 50 / 56 °F
Wind: 1 mph from North

Location: Chongqing Airport

Current Time: Feb 12, 2016 at 2:52:15 PM

Latest Report: Feb 12, 2016 at 2:00 PM


Visibility: 3 mi

Pressure: 29.65 "Hg

Humidity: 52%

Dew point: 45 °F

Location of ChongqingLocation

Historic Weather in Chongqing — Graph

°F

Chongqing Temperature Yesterday

Maximum temperature yesterday: 64 °F (at 3:00 PM)
Minimum temperature yesterday: 52 °F (at 12:00 AM)
Average temperature yesterday: 57 °F

High & Low Weather Summary for the Past Weeks

 TemperatureHumidityPressure
High64 °F (Feb 11, 3:00 PM)93% (Jan 30, 5:00 AM)30.57 "Hg (Jan 30, 5:00 AM)
Low36 °F (Jan 30, 5:00 AM)25% (Feb 7, 6:00 PM)29.62 "Hg (Feb 12, 4:00 AM)
Average46 °F72%30.19 "Hg
* Reported Jan 28 1:00 PM — Feb 12 1:00 PM, Chongqing, Weather by CustomWeather, © 2016

Note: Actual official high and low records may vary slightly from our data, if they occured in-between our weather recording intervals... More about our weather records

Advertising

Chongqing Weather History for the Previous 24 Hours

 ConditionsComfort  
Time TempWeatherWind HumidityBarometerVisibility
1:00 PM
Fri, Feb 12
61 °FScattered clouds.3 mph59%29.68 "Hg3 mi
12:00 PM61 °FHaze.3 mph59%29.68 "Hg3 mi
11:00 AM59 °FHaze.3 mph63%29.71 "Hg3 mi
10:00 AM57 °FFog.3 mph72%29.71 "Hg3 mi
9:00 AM55 °FFog.6 mph72%29.68 "Hg3 mi
8:00 AM55 °FOvercast.3 mph72%29.68 "Hg4 mi
7:00 AM55 °FOvercast.1 mph72%29.65 "HgN/A
6:00 AM54 °FOvercast.1 mph77%29.62 "HgN/A
5:00 AM55 °FOvercast.3 mph72%29.62 "HgN/A
4:00 AM55 °FOvercast.1 mph72%29.62 "HgN/A
3:00 AM55 °FClear.3 mph67%29.65 "Hg10 mi
2:00 AM55 °FClear.8 mph67%29.65 "Hg10 mi
1:00 AM57 °FClear.10 mph63%29.68 "Hg10 mi
12:00 AM57 °FClear.8 mph63%29.68 "Hg10 mi
11:00 PM
Thu, Feb 11
57 °FClear.10 mph63%29.68 "Hg10 mi
10:00 PM55 °FClear.10 mph67%29.68 "Hg10 mi
9:00 PM57 °FClear.13 mph63%29.68 "Hg10 mi
8:00 PM57 °FClear.10 mph63%29.68 "Hg10 mi
7:00 PM59 °FClear.8 mph59%29.68 "Hg10 mi
6:00 PM63 °FSunny.8 mph52%29.65 "Hg10 mi
5:00 PM64 °FPassing clouds.3 mph49%29.65 "HgN/A
4:00 PM64 °FSunny.1 mph46%29.68 "Hg10 mi
3:00 PM64 °FClear.3 mph46%29.71 "Hg5 mi
2:00 PM63 °FClear.3 mph49%29.74 "Hg5 mi
Weather by CustomWeather, © 2016

See weather overviewHow to use our weather pages